カタログに戻る

STARLINK-31059

運用中通信VLEO
NORAD 58596·PAYLOAD·🇺🇸 United States

打ち上げ Dec 19, 2023 から Cape Canaveral Space Force Station

Loading…

次のパス (今後24時間)

TLE

最新Source: CelesTrak SupGP

元期: Sep 14, 2026, 21:21 UTC

1 58596C 23200H   26257.89006944  .00045884  00000+0  16632-2 0  2577
2 58596  43.0039  23.6292 0001444 272.5885 199.9764 15.27530582    12

AllMySatでSTARLINK-31059をリアルタイム追跡

Download on the App Store